GW2953 Weather Reports


Display with metric or nautical units.
time (UTC)temp
F
wind
direction
speed
MPH
gust
MPH
rain 1hr
in
rain 24hr
in
rain mn
in
humidity
%
barometer
mb
20260510205057 82 171 4.0 8.0 0.00 0.00 0.00 47 1013.9
20260510204553 82 237 3.0 9.0 0.00 0.00 0.00 48 1013.7
20260510204050 82 161 5.0 10.0 0.00 0.00 0.00 48 1013.9
20260510203547 82 212 4.0 8.0 0.00 0.00 0.00 49 1013.9
20260510203044 82 173 7.0 10.0 0.00 0.00 0.00 49 1014.0
20260510202542 82 213 7.0 9.0 0.00 0.00 0.00 47 1014.0
20260510202039 81 150 3.0 5.0 0.00 0.00 0.00 48 1013.9
20260510201536 81 232 5.0 9.0 0.00 0.00 0.00 49 1013.9
20260510201033 81 214 3.0 10.0 0.00 0.00 0.00 51 1013.9
20260510200529 81 202 5.0 8.0 0.00 0.00 0.00 49 1014.0
20260510200027 81 174 4.0 9.0 0.00 0.00 0.00 49 1014.0
20260510195525 81 168 4.0 8.0 0.00 0.00 0.00 48 1013.9
20260510195020 81 210 3.0 9.0 0.00 0.00 0.00 52 1014.1
20260510194516 81 175 8.0 9.0 0.00 0.00 0.00 48 1013.9
20260510194012 80 171 5.0 9.0 0.00 0.00 0.00 48 1014.0
20260510193507 80 217 8.0 9.0 0.00 0.00 0.00 49 1014.1
20260510193003 80 224 4.0 8.0 0.00 0.00 0.00 47 1014.1
20260510192458 81 180 4.0 10.0 0.00 0.00 0.00 49 1014.1
20260510191954 80 218 3.0 7.0 0.00 0.00 0.00 49 1014.1
20260510191450 80 215 5.0 9.0 0.00 0.00 0.00 50 1014.1
20260510190948 80 215 4.0 10.0 0.00 0.00 0.00 49 1014.1
20260510190445 80 194 2.0 6.0 0.00 0.00 0.00 48 1014.0
20260510185942 79 197 2.0 9.0 0.00 0.00 0.00 48 1014.2
20260510185439 79 225 6.0 9.0 0.00 0.00 0.00 46 1014.1
20260510184936 79 130 3.0 11.0 0.00 0.00 0.00 46 1014.2
20260510184433 79 223 5.0 10.0 0.00 0.00 0.00 44 1014.2
20260510183932 78 203 4.0 8.0 0.00 0.00 0.00 45 1014.2
20260510183429 79 189 4.0 8.0 0.00 0.00 0.00 44 1014.1
20260510182924 80 179 3.0 9.0 0.00 0.00 0.00 40 1014.1
20260510182421 79 191 3.0 7.0 0.00 0.00 0.00 43 1014.0
20260510181916 79 181 5.0 8.0 0.00 0.00 0.00 42 1014.1
20260510181415 79 190 3.0 7.0 0.00 0.00 0.00 43 1014.0
20260510180910 79 246 2.0 5.0 0.00 0.00 0.00 45 1014.0
20260510180408 78 238 4.0 9.0 0.00 0.00 0.00 43 1014.1
20260510175904 78 204 5.0 7.0 0.00 0.00 0.00 43 1014.1
20260510175400 78 237 2.0 6.0 0.00 0.00 0.00 43 1014.0
20260510174856 78 192 2.0 5.0 0.00 0.00 0.00 45 1014.1
20260510174355 78 145 4.0 5.0 0.00 0.00 0.00 46 1014.0
20260510173850 79 161 3.0 5.0 0.00 0.00 0.00 44 1014.1
20260510173346 78 137 0.0 4.0 0.00 0.00 0.00 46 1014.0
20260510172843 78 147 0.0 5.0 0.00 0.00 0.00 41 1014.1
20260510172339 78 100 1.0 5.0 0.00 0.00 0.00 41 1014.0
20260510171835 78 168 0.0 5.0 0.00 0.00 0.00 43 1014.1
20260510171333 78 100 2.0 4.0 0.00 0.00 0.00 49 1014.1
20260510170830 78 187 0.0 3.0 0.00 0.00 0.00 44 1014.3
20260510170326 76 204 2.0 4.0 0.00 0.00 0.00 47 1014.3
20260510165821 77 142 1.0 3.0 0.00 0.00 0.00 49 1014.3
20260510165318 75 108 2.0 3.0 0.00 0.00 0.00 50 1014.3
20260510164815 73 176 2.0 4.0 0.00 0.00 0.00 49 1014.4
20260510164313 74 21 0.0 4.0 0.00 0.00 0.00 50 1014.1
20260510163812 73 89 5.0 5.0 0.00 0.00 0.00 51 1013.9
20260510163309 73 79 3.0 5.0 0.00 0.00 0.00 51 1014.1
20260510162808 72 89 3.0 5.0 0.00 0.00 0.00 54 1014.1
20260510162306 72 135 2.0 4.0 0.00 0.00 0.00 54 1014.2
20260510161801 73 70 0.0 4.0 0.00 0.00 0.00 51 1014.1
20260510161257 72 103 1.0 4.0 0.00 0.00 0.00 50 1014.2
20260510160754 73 108 0.0 4.0 0.00 0.00 0.00 51 1014.1
20260510160251 73 139 2.0 3.0 0.00 0.00 0.00 51 1014.1
20260510155746 72 107 1.0 3.0 0.00 0.00 0.00 54 1014.2
20260510155242 71 166 1.0 3.0 0.00 0.00 0.00 55 1014.0
20260510154738 69 75 0.0 3.0 0.00 0.00 0.00 55 1014.0
20260510154234 68 123 1.0 4.0 0.00 0.00 0.00 59 1014.1
20260510153729 67 105 1.0 3.0 0.00 0.00 0.00 60 1014.1
20260510153225 68 92 3.0 4.0 0.00 0.00 0.00 60 1014.2
20260510152722 66 111 1.0 4.0 0.00 0.00 0.00 63 1014.4
20260510152218 67 89 3.0 5.0 0.00 0.00 0.00 62 1014.3
20260510151715 66 107 1.0 1.0 0.00 0.00 0.00 62 1014.1
20260510151214 65 53 1.0 2.0 0.00 0.00 0.00 67 1014.2
20260510150709 63 217 0.0 2.0 0.00 0.00 0.00 69 1014.4
20260510150204 64 82 3.0 4.0 0.00 0.00 0.00 70 1014.3
20260510145701 61 38 0.0 1.0 0.00 0.00 0.00 69 1014.4
20260510145157 59 135 0.0 3.0 0.00 0.00 0.00 71 1014.3
20260510144653 59 195 0.0 2.0 0.00 0.00 0.00 74 1014.2
20260510144150 60 136 2.0 3.0 0.00 0.00 0.00 72 1014.4
20260510143645 60 94 2.0 3.0 0.00 0.00 0.00 75 1014.2
20260510143142 58 298 1.0 2.0 0.00 0.00 0.00 74 1014.3
20260510142638 58 62 0.0 4.0 0.00 0.00 0.00 78 1014.1
20260510142135 56 202 0.0 2.0 0.00 0.00 0.00 78 1014.3
20260510141632 55 303 0.0 2.0 0.00 0.00 0.00 80 1014.1
20260510141130 55 271 1.0 2.0 0.00 0.00 0.00 81 1014.1
20260510140626 54 204 1.0 1.0 0.00 0.00 0.00 83 1014.1
20260510140126 53 89 0.0 2.0 0.00 0.00 0.00 83 1014.1
20260510135621 54 114 2.0 2.0 0.00 0.00 0.00 82 1014.1
20260510135118 53 317 2.0 3.0 0.00 0.00 0.00 84 1014.1
20260510134615 53 210 1.0 2.0 0.00 0.00 0.00 83 1014.1
20260510134112 53 176 2.0 3.0 0.00 0.00 0.00 83 1014.0
20260510133608 53 294 2.0 3.0 0.00 0.00 0.00 85 1014.0
20260510133103 53 289 3.0 3.0 0.00 0.00 0.00 85 1014.0
20260510132600 53 112 1.0 2.0 0.00 0.00 0.00 84 1013.9
20260510132057 53 15 0.0 2.0 0.00 0.00 0.00 84 1013.8
20260510131555 53 292 3.0 3.0 0.00 0.00 0.00 85 1013.8
20260510131052 53 52 3.0 4.0 0.00 0.00 0.00 84 1013.8
20260510130548 53 326 0.0 2.0 0.00 0.00 0.00 84 1013.5
20260510130046 53 244 1.0 2.0 0.00 0.00 0.00 85 1013.7
20260510125542 53 327 0.0 2.0 0.00 0.00 0.00 83 1013.7
20260510125038 54 162 0.0 2.0 0.00 0.00 0.00 82 1013.6
20260510124535 54 328 1.0 2.0 0.00 0.00 0.00 82 1013.9
20260510124032 53 326 1.0 3.0 0.00 0.00 0.00 85 1013.5
20260510123527 53 271 0.0 3.0 0.00 0.00 0.00 85 1013.8
20260510123024 54 165 1.0 2.0 0.00 0.00 0.00 82 1013.7
20260510122519 54 52 3.0 3.0 0.00 0.00 0.00 82 1013.6
20260510122016 53 284 2.0 3.0 0.00 0.00 0.00 82 1013.6
20260510121513 53 312 0.0 2.0 0.00 0.00 0.00 83 1013.7
20260510121010 53 227 0.0 2.0 0.00 0.00 0.00 84 1013.6
20260510120508 53 79 1.0 2.0 0.00 0.00 0.00 83 1013.5
20260510120004 54 104 0.0 1.0 0.00 0.00 0.00 82 1013.4
20260510115501 54 140 0.0 3.0 0.00 0.00 0.00 81 1013.5
20260510114956 54 267 2.0 4.0 0.00 0.00 0.00 82 1013.5
20260510114453 54 258 0.0 2.0 0.00 0.00 0.00 82 1013.5
20260510113949 54 216 1.0 3.0 0.00 0.00 0.00 81 1013.6
20260510113444 54 267 2.0 4.0 0.00 0.00 0.00 82 1013.6
20260510112942 55 232 2.0 3.0 0.00 0.00 0.00 80 1013.7
20260510112439 55 309 2.0 3.0 0.00 0.00 0.00 80 1013.5
20260510111935 54 289 2.0 3.0 0.00 0.00 0.00 82 1013.7
20260510111431 54 276 3.0 3.0 0.00 0.00 0.00 83 1013.7
20260510110927 54 252 1.0 2.0 0.00 0.00 0.00 83 1013.7
20260510110424 55 75 0.0 2.0 0.00 0.00 0.00 80 1013.6
20260510105920 55 42 1.0 3.0 0.00 0.00 0.00 80 1013.5
20260510105415 55 317 3.0 4.0 0.00 0.00 0.00 80 1013.6
20260510104910 55 279 3.0 4.0 0.00 0.00 0.00 80 1013.6
20260510104408 55 162 0.0 1.0 0.00 0.00 0.00 82 1013.6
20260510103904 55 303 0.0 1.0 0.00 0.00 0.00 81 1013.7
20260510103401 55 62 0.0 2.0 0.00 0.00 0.00 79 1013.7
20260510102856 56 15 0.0 2.0 0.00 0.00 0.00 78 1013.7
20260510102352 55 212 1.0 2.0 0.00 0.00 0.00 80 1013.7
20260510101850 56 211 0.0 2.0 0.00 0.00 0.00 80 1013.8
20260510101348 56 224 0.0 1.0 0.00 0.00 0.00 78 1013.8
20260510100844 56 227 0.0 2.0 0.00 0.00 0.00 78 1013.7
20260510100342 56 278 1.0 2.0 0.00 0.00 0.00 78 1013.8
20260510095838 56 341 2.0 2.0 0.00 0.00 0.00 78 1013.8
20260510095332 57 156 0.0 2.0 0.00 0.00 0.00 77 1013.7
20260510094826 56 302 2.0 3.0 0.00 0.00 0.00 77 1013.7
20260510094322 56 246 0.0 2.0 0.00 0.00 0.00 78 1013.9
20260510093819 56 61 2.0 3.0 0.00 0.00 0.00 77 1013.8
20260510093315 56 41 2.0 3.0 0.00 0.00 0.00 78 1014.0
20260510092811 55 295 3.0 3.0 0.00 0.00 0.00 80 1013.9
20260510092307 55 56 2.0 2.0 0.00 0.00 0.00 79 1013.9
20260510091803 55 266 1.0 2.0 0.00 0.00 0.00 80 1013.9
20260510091301 55 61 2.0 3.0 0.00 0.00 0.00 79 1013.8
20260510090757 56 50 1.0 2.0 0.00 0.00 0.00 77 1014.0
20260510090254 56 314 2.0 2.0 0.00 0.00 0.00 77 1013.9
20260510085749 56 309 2.0 3.0 0.00 0.00 0.00 78 1013.9
20260510085244 56 124 1.0 1.0 0.00 0.00 0.00 78 1013.9
20260510084740 56 36 1.0 3.0 0.00 0.00 0.00 77 1013.9
20260510084237 56 316 1.0 2.0 0.00 0.00 0.00 78 1014.0
20260510083733 57 149 1.0 2.0 0.00 0.00 0.00 76 1014.0
20260510083231 56 322 0.0 2.0 0.00 0.00 0.00 79 1014.0
20260510082726 57 306 0.0 2.0 0.00 0.00 0.00 78 1014.0
20260510082223 57 53 0.0 3.0 0.00 0.00 0.00 76 1014.1
20260510081722 57 326 0.0 2.0 0.00 0.00 0.00 76 1013.9
20260510081218 57 286 2.0 3.0 0.00 0.00 0.00 77 1013.9
20260510080713 56 243 2.0 2.0 0.00 0.00 0.00 78 1013.9
20260510080209 57 84 2.0 3.0 0.00 0.00 0.00 77 1014.0
20260510075706 57 299 0.0 2.0 0.00 0.00 0.00 75 1014.0
20260510075204 57 291 0.0 2.0 0.00 0.00 0.00 78 1014.1
20260510074701 57 71 3.0 3.0 0.00 0.00 0.00 75 1014.0
20260510074156 57 60 3.0 3.0 0.00 0.00 0.00 75 1013.9
20260510073654 58 117 2.0 2.0 0.00 0.00 0.00 73 1014.0
20260510073149 58 230 0.0 1.0 0.00 0.00 0.00 75 1014.1
20260510072646 58 51 1.0 1.0 0.00 0.00 0.00 74 1014.1
20260510072142 58 242 0.0 2.0 0.00 0.00 0.00 74 1014.0
20260510071638 58 232 0.0 2.0 0.00 0.00 0.00 74 1014.1
20260510071136 59 305 0.0 2.0 0.00 0.00 0.00 73 1014.1
20260510070633 58 354 1.0 3.0 0.00 0.00 0.00 74 1014.0
20260510070131 59 157 0.0 3.0 0.00 0.00 0.00 72 1014.0
20260510065626 59 113 0.0 1.0 0.00 0.00 0.00 75 1014.2
20260510065122 59 262 0.0 2.0 0.00 0.00 0.00 74 1014.2
20260510064618 58 309 0.0 1.0 0.00 0.00 0.00 74 1014.0
20260510064115 59 58 2.0 3.0 0.00 0.00 0.00 73 1014.1
20260510063612 59 217 0.0 2.0 0.00 0.00 0.00 73 1014.1
20260510063109 59 294 2.0 2.0 0.00 0.00 0.00 73 1014.2
20260510062605 59 124 0.0 1.0 0.00 0.00 0.00 72 1014.0
20260510062100 60 0 0.0 2.0 0.00 0.00 0.00 69 1014.0
20260510061552 60 103 1.0 2.0 0.00 0.00 0.00 71 1014.2
20260510061049 60 297 0.0 1.0 0.00 0.00 0.00 70 1014.2
20260510060544 60 320 3.0 4.0 0.00 0.00 0.00 71 1014.1
20260510060041 60 249 2.0 2.0 0.00 0.00 0.00 72 1014.1
20260510055537 60 189 1.0 1.0 0.00 0.00 0.00 71 1014.1
20260510055036 60 55 0.0 2.0 0.00 0.00 0.00 70 1014.0
20260510054531 61 280 1.0 2.0 0.00 0.00 0.00 70 1014.0
20260510054026 61 289 2.0 4.0 0.00 0.00 0.00 69 1014.2
20260510053521 61 40 0.0 2.0 0.00 0.00 0.00 69 1014.2
20260510053019 62 92 2.0 3.0 0.00 0.00 0.00 68 1014.2
20260510052514 62 129 0.0 1.0 0.00 0.00 0.00 67 1014.0
20260510052011 62 104 0.0 1.0 0.00 0.00 0.00 66 1014.1
20260510051506 62 3 0.0 2.0 0.00 0.00 0.00 66 1014.0
20260510051003 62 186 2.0 2.0 0.00 0.00 0.00 67 1014.1
20260510050500 63 265 0.0 3.0 0.00 0.00 0.00 65 1014.0
20260510045957 63 286 2.0 4.0 0.00 0.00 0.00 66 1014.0
20260510045454 63 235 1.0 2.0 0.00 0.00 0.00 65 1013.9
20260510044950 63 104 0.0 1.0 0.00 0.00 0.00 66 1014.0
20260510044447 64 68 2.0 4.0 0.00 0.00 0.00 65 1014.0
20260510043944 64 280 3.0 5.0 0.00 0.00 0.00 63 1013.9
20260510043440 64 238 1.0 1.0 0.00 0.00 0.00 64 1013.8
20260510042939 64 242 0.0 2.0 0.00 0.00 0.00 64 1013.7
20260510042434 64 313 2.0 3.0 0.00 0.00 0.00 62 1013.5
20260510041930 65 124 0.0 1.0 0.00 0.00 0.00 61 1013.5
20260510041428 66 302 1.0 2.0 0.00 0.00 0.00 58 1013.6
20260510040925 66 284 0.0 1.0 0.00 0.00 0.00 59 1013.5
20260510040421 66 275 1.0 2.0 0.00 0.00 0.00 59 1013.5
20260510035916 66 281 1.0 3.0 0.00 0.00 0.00 59 1013.6
20260510035413 66 277 3.0 3.0 0.00 0.00 0.00 58 1013.2
20260510034908 67 205 0.0 1.0 0.00 0.00 0.00 59 1013.4
20260510034407 67 230 0.0 1.0 0.00 0.00 0.00 59 1013.2
20260510033902 68 217 0.0 2.0 0.00 0.00 0.00 57 1013.2
20260510033359 69 275 2.0 2.0 0.00 0.00 0.00 54 1013.2
20260510032856 69 286 1.0 3.0 0.00 0.00 0.00 54 1013.0
20260510032353 69 246 0.0 3.0 0.00 0.00 0.00 53 1013.1
20260510031848 70 37 0.0 2.0 0.00 0.00 0.00 52 1012.9
20260510031344 70 326 1.0 2.0 0.00 0.00 0.00 49 1013.0
20260510030843 71 283 3.0 4.0 0.00 0.00 0.00 49 1012.8
20260510030340 71 272 3.0 4.0 0.00 0.00 0.00 49 1012.6
20260510025838 72 318 3.0 3.0 0.00 0.00 0.00 47 1012.6
20260510025335 72 296 3.0 4.0 0.00 0.00 0.00 47 1012.5
20260510024832 73 281 2.0 5.0 0.00 0.00 0.00 46 1012.8
20260510024329 74 297 0.0 3.0 0.00 0.00 0.00 44 1012.4
20260510023825 75 26 2.0 3.0 0.00 0.00 0.00 41 1012.4
20260510023321 75 269 3.0 6.0 0.00 0.00 0.00 41 1012.3
20260510022819 75 269 5.0 9.0 0.00 0.00 0.00 43 1012.3
20260510022318 75 272 4.0 10.0 0.00 0.00 0.00 44 1012.4
20260510021817 74 306 5.0 8.0 0.00 0.00 0.00 44 1012.3
20260510021315 74 275 5.0 9.0 0.00 0.00 0.00 45 1012.0
20260510020811 75 269 9.0 11.0 0.00 0.00 0.00 45 1012.1
20260510020306 74 254 4.0 10.0 0.00 0.00 0.00 47 1012.2
20260510015802 75 249 5.0 13.0 0.00 0.00 0.00 44 1012.2
20260510015258 75 278 10.0 12.0 0.00 0.00 0.00 42 1012.5
20260510014753 76 261 8.0 12.0 0.00 0.00 0.00 43 1012.2
20260510014251 78 262 9.0 11.0 0.00 0.00 0.00 39 1012.2
20260510013747 80 264 5.0 11.0 0.00 0.00 0.00 36 1012.2
20260510013242 80 264 7.0 11.0 0.00 0.00 0.00 35 1012.2
20260510012737 80 268 8.0 10.0 0.00 0.00 0.00 39 1012.3
20260510012232 80 267 9.0 10.0 0.00 0.00 0.00 36 1012.3
20260510011727 80 253 6.0 9.0 0.00 0.00 0.00 36 1012.3
20260510011222 81 265 7.0 12.0 0.00 0.00 0.00 35 1012.6
20260510010719 81 273 7.0 9.0 0.00 0.00 0.00 37 1012.4
20260510010216 81 274 5.0 9.0 0.00 0.00 0.00 35 1012.2
20260510005713 82 264 6.0 7.0 0.00 0.00 0.00 36 1012.4
20260510005209 83 262 4.0 7.0 0.00 0.00 0.00 40 1012.5
20260510004707 83 263 5.0 7.0 0.00 0.00 0.00 38 1012.6
20260510004204 84 259 5.0 7.0 0.00 0.00 0.00 33 1012.3
20260510003702 84 272 6.0 6.0 0.00 0.00 0.00 35 1012.4
20260510003157 84 263 6.0 7.0 0.00 0.00 0.00 36 1012.4
20260510002652 84 269 5.0 6.0 0.00 0.00 0.00 40 1012.3
20260510002149 85 263 5.0 7.0 0.00 0.00 0.00 38 1012.2
20260510001646 87 264 5.0 6.0 0.00 0.00 0.00 37 1012.5
20260510001145 89 274 3.0 4.0 0.00 0.00 0.00 37 1012.5
20260510000645 89 276 2.0 4.0 0.00 0.00 0.00 21 1012.6
20260510000143 90 262 3.0 3.0 0.00 0.00 0.00 24 1012.6
20260509235639 91 277 1.0 3.0 0.00 0.00 0.00 24 1012.5
20260509235135 90 253 1.0 3.0 0.00 0.00 0.00 29 1012.6
20260509234631 91 238 2.0 2.0 0.00 0.00 0.00 28 1012.5
20260509234129 91 0 0.0 2.0 0.00 0.00 0.00 20 1012.6
20260509233627 90 329 1.0 3.0 0.00 0.00 0.00 23 1012.9
20260509233124 93 49 1.0 3.0 0.00 0.00 0.00 18 1012.8
20260509232620 93 264 2.0 4.0 0.00 0.00 0.00 17 1012.9
20260509232117 91 343 0.0 2.0 0.00 0.00 0.00 18 1012.8
20260509231614 90 198 2.0 4.0 0.00 0.00 0.00 18 1013.0
20260509231112 91 290 2.0 4.0 0.00 0.00 0.00 21 1013.0
20260509230608 91 138 0.0 3.0 0.00 0.00 0.00 19 1013.1
20260509230105 90 233 3.0 5.0 0.00 0.00 0.00 20 1013.1
20260509225601 90 284 0.0 3.0 0.00 0.00 0.00 24 1013.3
20260509225056 91 293 2.0 4.0 0.00 0.00 0.00 18 1012.9
20260509224552 91 227 1.0 3.0 0.00 0.00 0.00 25 1013.2
20260509224049 89 222 4.0 6.0 0.00 0.00 0.00 22 1013.3
20260509223546 90 254 4.0 6.0 0.00 0.00 0.00 19 1013.3
20260509223044 87 107 1.0 6.0 0.00 0.00 0.00 22 1013.3
20260509222539 87 53 3.0 6.0 0.00 0.00 0.00 22 1013.7
20260509222036 89 113 2.0 5.0 0.00 0.00 0.00 28 1013.6
20260509221532 90 347 1.0 2.0 0.00 0.00 0.00 22 1013.4
20260509221027 90 242 3.0 4.0 0.00 0.00 0.00 23 1013.6
20260509220524 90 232 1.0 2.0 0.00 0.00 0.00 23 1013.7
20260509220020 89 241 4.0 4.0 0.00 0.00 0.00 21 1013.6
20260509215515 89 348 2.0 4.0 0.00 0.00 0.00 22 1013.6
20260509215013 88 325 2.0 6.0 0.00 0.00 0.00 24 1013.8
20260509214510 88 272 2.0 4.0 0.00 0.00 0.00 24 1013.8
20260509214007 87 216 3.0 7.0 0.00 0.00 0.00 27 1013.5
20260509213503 86 247 2.0 5.0 0.00 0.00 0.00 23 1013.8
20260509213000 88 176 3.0 5.0 0.00 0.00 0.00 23 1013.8
20260509212457 88 346 0.0 3.0 0.00 0.00 0.00 23 1013.9
20260509211953 87 242 2.0 5.0 0.00 0.00 0.00 24 1013.8
20260509211449 88 113 2.0 3.0 0.00 0.00 0.00 29 1013.8
20260509210945 88 240 2.0 4.0 0.00 0.00 0.00 25 1014.0
20260509210437 87 228 4.0 6.0 0.00 0.00 0.00 22 1014.0
20260509205933 88 217 2.0 4.0 0.00 0.00 0.00 24 1014.2
20260509205428 88 277 1.0 3.0 0.00 0.00 0.00 22 1014.0